Location: *
(52.2090°N, 4.1550°W)
Time: 04:56:46
(UTC+00:00)

Cosmos 1707 Rocket - Pass Details

Date: 19 July 2019
Orbit: 606 x 631 km, 82.5° (Epoch: 20 August)

Event Time Altitude Azimuth Distance (km) Brightness Sun altitude
Rises 21:59:18 0° 351° (N) 2,919 8.3 -10.6°
Reaches altitude 10° 22:01:34 10° 355° (N) 2,011 7.2 -10.8°
Maximum altitude 22:05:59 60° 76° (ENE) 721 3.8 -11.2°
Enters shadow 22:09:25 16° 154° (SSE) 1,628 5.1 -11.4°
